Location: The Saddle
(36.8333°N, 80.3417°W)
Time: 09:17:44
(UTC-04:00)

Courier 1B - Pass Details

Date: 25 January 2022
Orbit: 962 x 1209 km, 28.3° (Epoch: 26 May)

Event Time Altitude Azimuth Distance (km) Brightness Sun altitude
Rises 20:40:57 0° 250° (WSW) 4,081 11.6 -36.3°
Reaches altitude 10° 20:43:55 10° 244° (WSW) 3,131 10.7 -36.9°
Enters shadow 20:49:14 37° 210° (SSW) 1,771 8.9 -37.9°
Maximum altitude 20:51:15 44° 175° (S) 1,605 - -38.3°
Drops below altitude 10° 20:58:32 10° 106° (ESE) 3,109 - -39.8°
Sets 21:01:28 0° 100° (E) 4,050 - -40.4°
